Time,TemperatureF,DewpointF,PressureIn,WindDirection,WindDirectionDegrees,WindSpeedMPH,WindSpeedGustMPH,Humidity,HourlyPrecipIn,Conditions,Clouds,dailyrainin,SolarRadiationWatts/m^2,SoftwareType,DateUTC
2013-05-13 00:00:00,41.3,32.6,30.07,WNW,288,0.0,2.0,71,0.00,,---,0.00,0.00,VWS V14.01,2013-05-13 04:00:00,
2013-05-13 00:01:00,41.3,32.6,30.07,WNW,288,0.0,0.0,71,0.00,,---,0.00,0.00,VWS V14.01,2013-05-13 04:01:00,
2013-05-13 00:02:00,41.3,32.6,30.07,WNW,288,0.0,0.0,71,0.00,,---,0.00,0.00,VWS V14.01,2013-05-13 04:02:00,
2013-05-13 00:07:00,41.3,32.6,30.06,WNW,288,0.0,0.0,71,0.00,,---,0.00,0.00,VWS V14.01,2013-05-13 04:07:00,
2013-05-13 00:12:00,41.3,32.6,30.06,WNW,288,0.0,2.0,71,0.00,,---,0.00,0.00,VWS V14.01,2013-05-13 04:12:00,
2013-05-13 00:17:00,41.2,32.5,30.06,WNW,288,0.0,2.0,71,0.00,,---,0.00,0.00,VWS V14.01,2013-05-13 04:17:00,
2013-05-13 00:22:00,41.2,32.5,30.06,WNW,288,0.0,2.0,71,0.00,,---,0.00,0.00,VWS V14.01,2013-05-13 04:22:00,
2013-05-13 00:27:00,41.2,32.5,30.06,WNW,288,0.0,2.0,71,0.00,,---,0.00,0.00,VWS V14.01,2013-05-13 04:27:00,
2013-05-13 00:30:00,41.2,32.9,30.06,WNW,288,0.0,2.0,72,0.00,,---,0.00,0.00,VWS V14.01,2013-05-13 04:30:00,
2013-05-13 00:32:00,41.2,32.9,30.06,WNW,288,0.0,0.0,72,0.00,,---,0.00,0.00,VWS V14.01,2013-05-13 04:32:00,
2013-05-13 00:37:00,41.1,32.8,30.06,WNW,288,0.0,1.0,72,0.00,,---,0.00,0.00,VWS V14.01,2013-05-13 04:37:00,
2013-05-13 00:42:00,41.0,32.7,30.06,WNW,288,0.0,1.0,72,0.00,,---,0.00,0.00,VWS V14.01,2013-05-13 04:42:00,
2013-05-13 00:47:00,40.9,32.6,30.06,WNW,288,0.0,1.0,72,0.00,,---,0.00,0.00,VWS V14.01,2013-05-13 04:47:00,
2013-05-13 00:52:00,40.8,32.5,30.06,WNW,288,0.0,1.0,72,0.00,,---,0.00,0.00,VWS V14.01,2013-05-13 04:52:00,
2013-05-13 00:57:00,40.7,32.4,30.06,WNW,288,1.0,1.0,72,0.00,,---,0.00,0.00,VWS V14.01,2013-05-13 04:57:00,
2013-05-13 01:00:00,40.6,32.3,30.06,WNW,288,0.0,1.0,72,0.00,,---,0.00,0.00,VWS V14.01,2013-05-13 05:00:00,
2013-05-13 01:02:00,40.5,32.2,30.06,WNW,288,0.0,0.0,72,0.00,,---,0.00,0.00,VWS V14.01,2013-05-13 05:02:00,
2013-05-13 01:07:00,40.3,32.0,30.06,WNW,288,0.0,0.0,72,0.00,,---,0.00,0.00,VWS V14.01,2013-05-13 05:07:00,
2013-05-13 01:12:00,40.2,31.9,30.06,WNW,288,0.0,0.0,72,0.00,,---,0.00,0.00,VWS V14.01,2013-05-13 05:12:00,
2013-05-13 01:17:00,40.0,31.7,30.06,WNW,288,0.0,0.0,72,0.00,,---,0.00,0.00,VWS V14.01,2013-05-13 05:17:00,
2013-05-13 01:22:00,39.8,31.5,30.06,WNW,288,0.0,0.0,72,0.00,,---,0.00,0.00,VWS V14.01,2013-05-13 05:22:00,
2013-05-13 01:27:00,39.7,31.4,30.06,WNW,288,0.0,0.0,72,0.00,,---,0.00,0.00,VWS V14.01,2013-05-13 05:27:00,
2013-05-13 01:30:00,39.6,31.3,30.06,WNW,288,0.0,0.0,72,0.00,,---,0.00,0.00,VWS V14.01,2013-05-13 05:30:00,
2013-05-13 01:32:00,39.5,31.2,30.06,WNW,288,0.0,0.0,72,0.00,,---,0.00,0.00,VWS V14.01,2013-05-13 05:32:00,
2013-05-13 01:37:00,39.4,31.5,30.06,WNW,288,0.0,0.0,73,0.00,,---,0.00,0.00,VWS V14.01,2013-05-13 05:37:00,
2013-05-13 01:42:00,39.3,31.7,30.06,WNW,288,0.0,1.0,74,0.00,,---,0.00,0.00,VWS V14.01,2013-05-13 05:42:00,
2013-05-13 01:47:00,39.3,31.7,30.06,WNW,288,0.0,1.0,74,0.00,,---,0.00,0.00,VWS V14.01,2013-05-13 05:47:00,
2013-05-13 01:52:00,39.3,32.0,30.06,WNW,288,0.0,1.0,75,0.00,,---,0.00,0.00,VWS V14.01,2013-05-13 05:52:00,
2013-05-13 01:58:00,39.3,32.0,30.06,WNW,288,0.0,1.0,75,0.00,,---,0.00,0.00,VWS V14.01,2013-05-13 05:58:00,
2013-05-13 02:00:00,39.2,32.0,30.06,WNW,288,0.0,1.0,75,0.00,,---,0.00,0.00,VWS V14.01,2013-05-13 06:00:00,
2013-05-13 02:03:00,39.2,32.0,30.06,WNW,288,0.0,0.0,75,0.00,,---,0.00,0.00,VWS V14.01,2013-05-13 06:03:00,
2013-05-13 02:08:00,39.2,32.3,30.06,WNW,288,0.0,0.0,76,0.00,,---,0.00,0.00,VWS V14.01,2013-05-13 06:08:00,
2013-05-13 02:13:00,39.2,32.3,30.06,WNW,288,0.0,0.0,76,0.00,,---,0.00,0.00,VWS V14.01,2013-05-13 06:13:00,
2013-05-13 02:18:00,39.1,32.2,30.06,WNW,288,0.0,0.0,76,0.00,,---,0.00,0.00,VWS V14.01,2013-05-13 06:18:00,
2013-05-13 02:23:00,39.1,32.2,30.06,WNW,288,0.0,0.0,76,0.00,,---,0.00,0.00,VWS V14.01,2013-05-13 06:23:00,
2013-05-13 02:28:00,39.0,32.1,30.06,WNW,288,0.0,1.0,76,0.00,,---,0.00,0.00,VWS V14.01,2013-05-13 06:28:00,
2013-05-13 02:30:00,39.0,32.4,30.06,WNW,288,0.0,1.0,77,0.00,,---,0.00,0.00,VWS V14.01,2013-05-13 06:30:00,
2013-05-13 02:33:00,39.0,32.4,30.06,WNW,288,0.0,0.0,77,0.00,,---,0.00,0.00,VWS V14.01,2013-05-13 06:33:00,
2013-05-13 02:38:00,39.0,32.7,30.06,WNW,288,0.0,0.0,78,0.00,,---,0.00,0.00,VWS V14.01,2013-05-13 06:38:00,
2013-05-13 02:43:00,39.0,33.0,30.06,WNW,288,0.0,1.0,79,0.00,,---,0.00,0.00,VWS V14.01,2013-05-13 06:43:00,
2013-05-13 02:48:00,38.9,33.3,30.06,WNW,288,0.0,1.0,80,0.00,,---,0.00,0.00,VWS V14.01,2013-05-13 06:48:00,
2013-05-13 02:53:00,38.9,33.3,30.06,WNW,288,0.0,1.0,80,0.00,,---,0.00,0.00,VWS V14.01,2013-05-13 06:53:00,
2013-05-13 02:58:00,38.9,33.9,30.05,WNW,288,0.0,1.0,82,0.00,,---,0.00,0.00,VWS V14.01,2013-05-13 06:58:00,
2013-05-13 03:00:00,38.9,33.6,30.06,WNW,288,0.0,1.0,81,0.00,,---,0.00,0.00,VWS V14.01,2013-05-13 07:00:00,
2013-05-13 03:03:00,38.8,33.8,30.05,WNW,288,0.0,0.0,82,0.00,,---,0.00,0.00,VWS V14.01,2013-05-13 07:03:00,
2013-05-13 03:08:00,38.8,33.8,30.05,WNW,288,0.0,0.0,82,0.00,,---,0.00,0.00,VWS V14.01,2013-05-13 07:08:00,
2013-05-13 03:13:00,38.9,34.2,30.05,WNW,288,0.0,1.0,83,0.00,,---,0.00,0.00,VWS V14.01,2013-05-13 07:13:00,
2013-05-13 03:18:00,38.9,34.2,30.05,WNW,288,0.0,1.0,83,0.00,,---,0.00,0.00,VWS V14.01,2013-05-13 07:18:00,
2013-05-13 03:23:00,38.9,34.5,30.05,WNW,288,0.0,1.0,84,0.00,,---,0.00,0.00,VWS V14.01,2013-05-13 07:23:00,
2013-05-13 03:28:00,38.9,34.5,30.05,WNW,288,0.0,1.0,84,0.00,,---,0.00,0.00,VWS V14.01,2013-05-13 07:28:00,
2013-05-13 03:30:00,38.9,34.5,30.05,WNW,288,0.0,1.0,84,0.00,,---,0.00,0.00,VWS V14.01,2013-05-13 07:30:00,
2013-05-13 03:33:00,38.9,34.8,30.05,WNW,288,0.0,0.0,85,0.00,,---,0.00,0.00,VWS V14.01,2013-05-13 07:33:00,
2013-05-13 03:38:00,38.9,34.8,30.05,WNW,288,0.0,2.0,85,0.00,,---,0.00,0.00,VWS V14.01,2013-05-13 07:38:00,
2013-05-13 03:43:00,38.8,34.4,30.05,WNW,288,0.0,2.0,84,0.00,,---,0.00,0.00,VWS V14.01,2013-05-13 07:43:00,
2013-05-13 03:48:00,38.8,34.1,30.05,WNW,288,0.0,2.0,83,0.00,,---,0.00,0.00,VWS V14.01,2013-05-13 07:48:00,
2013-05-13 03:53:00,38.8,33.8,30.05,WNW,288,0.0,2.0,82,0.00,,---,0.00,0.00,VWS V14.01,2013-05-13 07:53:00,
2013-05-13 03:58:00,38.9,33.9,30.05,WNW,288,0.0,2.0,82,0.00,,---,0.00,0.00,VWS V14.01,2013-05-13 07:58:00,
2013-05-13 04:00:00,39.0,33.7,30.05,WNW,288,0.0,2.0,81,0.00,,---,0.00,0.00,VWS V14.01,2013-05-13 08:00:00,
2013-05-13 04:03:00,39.0,33.7,30.05,WNW,288,0.0,1.0,81,0.00,,---,0.00,0.00,VWS V14.01,2013-05-13 08:03:00,
2013-05-13 04:08:00,39.1,33.5,30.05,WNW,288,0.0,1.0,80,0.00,,---,0.00,0.00,VWS V14.01,2013-05-13 08:08:00,
2013-05-13 04:13:00,39.2,33.6,30.05,WNW,288,0.0,1.0,80,0.00,,---,0.00,0.00,VWS V14.01,2013-05-13 08:13:00,
2013-05-13 04:19:00,39.3,33.7,30.05,WNW,288,0.0,2.0,80,0.00,,---,0.00,0.00,VWS V14.01,2013-05-13 08:19:00,
2013-05-13 04:24:00,39.4,33.4,30.05,WNW,288,0.0,2.0,79,0.00,,---,0.00,0.00,VWS V14.01,2013-05-13 08:24:00,
2013-05-13 04:29:00,39.4,33.4,30.05,WNW,288,2.0,2.0,79,0.00,,---,0.00,0.00,VWS V14.01,2013-05-13 08:29:00,
2013-05-13 04:30:00,39.5,33.5,30.05,WNW,288,2.0,2.0,79,0.00,,---,0.00,0.00,VWS V14.01,2013-05-13 08:30:00,
2013-05-13 04:34:00,39.5,33.5,30.05,WNW,288,0.0,2.0,79,0.00,,---,0.00,0.00,VWS V14.01,2013-05-13 08:34:00,
2013-05-13 04:39:00,39.6,33.6,30.05,WNW,288,0.0,2.0,79,0.00,,---,0.00,0.00,VWS V14.01,2013-05-13 08:39:00,
2013-05-13 04:44:00,39.6,33.6,30.05,WNW,288,0.0,2.0,79,0.00,,---,0.00,0.00,VWS V14.01,2013-05-13 08:44:00,
2013-05-13 04:49:00,39.6,33.6,30.05,WNW,288,0.0,2.0,79,0.00,,---,0.00,0.00,VWS V14.01,2013-05-13 08:49:00,
2013-05-13 04:54:00,39.6,33.6,30.04,WNW,288,0.0,2.0,79,0.00,,---,0.00,0.00,VWS V14.01,2013-05-13 08:54:00,
2013-05-13 04:59:00,39.6,33.3,30.05,WNW,288,0.0,2.0,78,0.00,,---,0.00,0.00,VWS V14.01,2013-05-13 08:59:00,
2013-05-13 05:00:00,39.6,33.3,30.05,WNW,288,0.0,2.0,78,0.00,,---,0.00,0.00,VWS V14.01,2013-05-13 09:00:00,
2013-05-13 05:04:00,39.6,33.3,30.05,WNW,288,1.0,1.0,78,0.00,,---,0.00,0.00,VWS V14.01,2013-05-13 09:04:00,
2013-05-13 05:09:00,39.5,33.2,30.05,WNW,288,0.0,1.0,78,0.00,,---,0.00,0.00,VWS V14.01,2013-05-13 09:09:00,
2013-05-13 05:14:00,39.5,33.2,30.05,WNW,288,0.0,1.0,78,0.00,,---,0.00,0.00,VWS V14.01,2013-05-13 09:14:00,
2013-05-13 05:19:00,39.5,32.9,30.05,WNW,288,0.0,1.0,77,0.00,,---,0.00,0.00,VWS V14.01,2013-05-13 09:19:00,
2013-05-13 05:24:00,39.5,32.9,30.04,WNW,288,0.0,1.0,77,0.00,,---,0.00,0.00,VWS V14.01,2013-05-13 09:24:00,
2013-05-13 05:29:00,39.3,32.7,30.05,WNW,288,0.0,1.0,77,0.00,,---,0.00,0.00,VWS V14.01,2013-05-13 09:29:00,
2013-05-13 05:30:00,39.3,32.7,30.05,WNW,288,0.0,1.0,77,0.00,,---,0.00,0.00,VWS V14.01,2013-05-13 09:30:00,
2013-05-13 05:34:00,39.3,32.7,30.05,WNW,288,0.0,0.0,77,0.00,,---,0.00,0.00,VWS V14.01,2013-05-13 09:34:00,
2013-05-13 05:39:00,39.1,32.5,30.04,WNW,288,0.0,1.0,77,0.00,,---,0.00,0.00,VWS V14.01,2013-05-13 09:39:00,
2013-05-13 05:44:00,39.0,32.4,30.04,WNW,288,0.0,1.0,77,0.00,,---,0.00,0.00,VWS V14.01,2013-05-13 09:44:00,
2013-05-13 05:49:00,38.9,32.6,30.04,WNW,288,0.0,1.0,78,0.00,,---,0.00,0.00,VWS V14.01,2013-05-13 09:49:00,
2013-05-13 05:54:00,38.9,33.0,30.05,WNW,288,0.0,1.0,79,0.00,,---,0.00,0.00,VWS V14.01,2013-05-13 09:54:00,
2013-05-13 05:59:00,38.8,33.2,30.05,WNW,288,0.0,1.0,80,0.00,,---,0.00,0.00,VWS V14.01,2013-05-13 09:59:00,
2013-05-13 06:00:00,38.7,33.1,30.05,WNW,288,0.0,1.0,80,0.00,,---,0.00,0.00,VWS V14.01,2013-05-13 10:00:00,
2013-05-13 06:04:00,38.6,33.0,30.05,WNW,288,0.0,0.0,80,0.00,,---,0.00,0.00,VWS V14.01,2013-05-13 10:04:00,
2013-05-13 06:09:00,38.4,32.8,30.06,WNW,288,0.0,0.0,80,0.00,,---,0.00,0.00,VWS V14.01,2013-05-13 10:09:00,
2013-05-13 06:14:00,38.2,32.6,30.06,WNW,288,0.0,0.0,80,0.00,,---,0.00,0.00,VWS V14.01,2013-05-13 10:14:00,
2013-05-13 06:19:00,37.9,32.6,30.06,WNW,288,0.0,0.0,81,0.00,,---,0.00,5.00,VWS V14.01,2013-05-13 10:19:00,
2013-05-13 06:24:00,37.4,32.4,30.06,WNW,288,0.0,0.0,82,0.00,,---,0.00,9.00,VWS V14.01,2013-05-13 10:24:00,
2013-05-13 06:29:00,37.0,32.3,30.07,WNW,288,0.0,0.0,83,0.00,,---,0.00,12.00,VWS V14.01,2013-05-13 10:29:00,
2013-05-13 06:30:00,37.0,32.3,30.07,WNW,288,0.0,0.0,83,0.00,,---,0.00,12.00,VWS V14.01,2013-05-13 10:30:00,
2013-05-13 06:35:00,36.8,32.1,30.06,WNW,288,1.0,1.0,83,0.00,,---,0.00,14.00,VWS V14.01,2013-05-13 10:35:00,
2013-05-13 06:40:00,36.5,32.1,30.07,WNW,288,0.0,1.0,84,0.00,,---,0.00,16.00,VWS V14.01,2013-05-13 10:40:00,
2013-05-13 06:45:00,36.2,32.1,30.07,WNW,288,0.0,1.0,85,0.00,,---,0.00,19.00,VWS V14.01,2013-05-13 10:45:00,
2013-05-13 06:50:00,36.1,32.0,30.07,WNW,288,0.0,1.0,85,0.00,,---,0.00,23.00,VWS V14.01,2013-05-13 10:50:00,
2013-05-13 06:55:00,35.9,32.1,30.07,WNW,288,0.0,1.0,86,0.00,,---,0.00,25.00,VWS V14.01,2013-05-13 10:55:00,
2013-05-13 07:00:00,35.8,32.3,30.07,WNW,288,0.0,1.0,87,0.00,,---,0.00,28.00,VWS V14.01,2013-05-13 11:00:00,
2013-05-13 07:05:00,35.8,32.3,30.08,WNW,288,0.0,0.0,87,0.00,,---,0.00,30.00,VWS V14.01,2013-05-13 11:05:00,
2013-05-13 07:10:00,35.7,32.5,30.08,WNW,288,0.0,0.0,88,0.00,,---,0.00,70.00,VWS V14.01,2013-05-13 11:10:00,
2013-05-13 07:15:00,35.8,32.6,30.08,WNW,288,0.0,0.0,88,0.00,,---,0.00,97.00,VWS V14.01,2013-05-13 11:15:00,
2013-05-13 07:20:00,35.9,32.7,30.08,WNW,288,0.0,0.0,88,0.00,,---,0.00,72.00,VWS V14.01,2013-05-13 11:20:00,
2013-05-13 07:25:00,36.1,33.2,30.08,WNW,288,0.0,0.0,89,0.00,,---,0.00,42.00,VWS V14.01,2013-05-13 11:25:00,
2013-05-13 07:30:00,36.2,33.3,30.08,WNW,288,0.0,0.0,89,0.00,,---,0.00,158.00,VWS V14.01,2013-05-13 11:30:00,
2013-05-13 07:35:00,36.5,33.6,30.09,WNW,288,0.0,0.0,89,0.00,,---,0.00,229.00,VWS V14.01,2013-05-13 11:35:00,
2013-05-13 07:40:00,37.1,34.4,30.09,WNW,288,0.0,1.0,90,0.00,,---,0.00,113.00,VWS V14.01,2013-05-13 11:40:00,
2013-05-13 07:45:00,37.7,35.0,30.09,WNW,288,0.0,1.0,90,0.00,,---,0.00,84.00,VWS V14.01,2013-05-13 11:45:00,
2013-05-13 07:50:00,38.0,35.3,30.09,WNW,288,0.0,1.0,90,0.00,,---,0.00,97.00,VWS V14.01,2013-05-13 11:50:00,
2013-05-13 07:55:00,38.2,35.5,30.09,WNW,288,0.0,1.0,90,0.00,,---,0.00,237.00,VWS V14.01,2013-05-13 11:55:00,
2013-05-13 08:00:00,38.6,35.9,30.09,WNW,288,0.0,1.0,90,0.00,,---,0.00,255.00,VWS V14.01,2013-05-13 12:00:00,
2013-05-13 08:05:00,38.9,35.9,30.09,WNW,288,0.0,1.0,89,0.00,,---,0.00,271.00,VWS V14.01,2013-05-13 12:05:00,
2013-05-13 08:10:00,39.3,36.0,30.09,WNW,288,0.0,1.0,88,0.00,,---,0.00,288.00,VWS V14.01,2013-05-13 12:10:00,
2013-05-13 08:15:00,39.7,36.2,30.09,WNW,288,0.0,3.0,87,0.00,,---,0.00,195.00,VWS V14.01,2013-05-13 12:15:00,
2013-05-13 08:20:00,40.1,36.0,30.10,WNW,288,1.0,3.0,85,0.00,,---,0.00,292.00,VWS V14.01,2013-05-13 12:20:00,
2013-05-13 08:25:00,40.6,36.2,30.10,WNW,288,3.0,3.0,84,0.00,,---,0.00,431.00,VWS V14.01,2013-05-13 12:25:00,
2013-05-13 08:30:00,41.1,35.7,30.10,WNW,288,1.0,3.0,81,0.00,,---,0.00,229.00,VWS V14.01,2013-05-13 12:30:00,
2013-05-13 08:35:00,41.5,35.5,30.10,WNW,288,0.0,3.0,79,0.00,,---,0.00,244.00,VWS V14.01,2013-05-13 12:35:00,
2013-05-13 08:40:00,41.8,34.1,30.10,WNW,282,2.0,4.0,74,0.00,,---,0.00,227.00,VWS V14.01,2013-05-13 12:40:00,
2013-05-13 08:45:00,42.1,34.1,30.11,WNW,283,1.0,4.0,73,0.00,,---,0.00,445.00,VWS V14.01,2013-05-13 12:45:00,
2013-05-13 08:51:00,42.4,33.7,30.11,WNW,285,0.0,4.0,71,0.00,,---,0.00,327.00,VWS V14.01,2013-05-13 12:51:00,
2013-05-13 08:56:00,42.9,33.4,30.10,WNW,286,3.0,5.0,69,0.00,,---,0.00,237.00,VWS V14.01,2013-05-13 12:56:00,
2013-05-13 09:00:00,43.3,32.3,30.11,West,273,0.0,5.0,65,0.00,,---,0.00,236.00,VWS V14.01,2013-05-13 13:00:00,
2013-05-13 09:01:00,43.3,32.3,30.11,West,273,2.0,2.0,65,0.00,,---,0.00,236.00,VWS V14.01,2013-05-13 13:01:00,
2013-05-13 09:06:00,43.6,31.5,30.11,West,276,1.0,10.0,62,0.00,,---,0.00,223.00,VWS V14.01,2013-05-13 13:06:00,
2013-05-13 09:11:00,43.6,30.6,30.11,WNW,289,1.0,10.0,60,0.00,,---,0.00,229.00,VWS V14.01,2013-05-13 13:11:00,
2013-05-13 09:16:00,43.8,30.8,30.11,WNW,300,2.0,10.0,60,0.00,,---,0.00,283.00,VWS V14.01,2013-05-13 13:16:00,
2013-05-13 09:21:00,44.1,31.1,30.11,WNW,300,2.0,10.0,60,0.00,,---,0.00,239.00,VWS V14.01,2013-05-13 13:21:00,
2013-05-13 09:26:00,44.2,30.8,30.11,WNW,300,1.0,10.0,59,0.00,,---,0.00,276.00,VWS V14.01,2013-05-13 13:26:00,
2013-05-13 09:30:00,44.3,30.9,30.12,WNW,293,4.0,10.0,59,0.00,,---,0.00,246.00,VWS V14.01,2013-05-13 13:30:00,
2013-05-13 09:31:00,44.3,31.3,30.12,West,272,4.0,5.0,60,0.00,,---,0.00,274.00,VWS V14.01,2013-05-13 13:31:00,
2013-05-13 09:36:00,44.3,30.9,30.12,WNW,282,1.0,7.0,59,0.00,,---,0.00,223.00,VWS V14.01,2013-05-13 13:36:00,
2013-05-13 09:41:00,44.3,31.3,30.12,WNW,298,1.0,7.0,60,0.00,,---,0.00,264.00,VWS V14.01,2013-05-13 13:41:00,
2013-05-13 09:46:00,44.4,31.4,30.12,West,281,0.0,7.0,60,0.00,,---,0.00,253.00,VWS V14.01,2013-05-13 13:46:00,
2013-05-13 09:51:00,44.6,31.2,30.12,West,276,2.0,7.0,59,0.00,,---,0.00,221.00,VWS V14.01,2013-05-13 13:51:00,
2013-05-13 09:56:00,44.6,31.6,30.12,WNW,292,1.0,7.0,60,0.00,,---,0.00,262.00,VWS V14.01,2013-05-13 13:56:00,
2013-05-13 10:00:00,44.8,32.2,30.12,West,271,3.0,7.0,61,0.00,,---,0.00,399.00,VWS V14.01,2013-05-13 14:00:00,
2013-05-13 10:01:00,44.8,32.2,30.12,WNW,284,3.0,4.0,61,0.00,,---,0.00,369.00,VWS V14.01,2013-05-13 14:01:00,
2013-05-13 10:06:00,45.0,32.4,30.13,NW,319,4.0,5.0,61,0.00,,---,0.00,345.00,VWS V14.01,2013-05-13 14:06:00,
2013-05-13 10:11:00,45.4,32.3,30.13,West,275,3.0,10.0,60,0.00,,---,0.00,229.00,VWS V14.01,2013-05-13 14:11:00,
2013-05-13 10:16:00,45.4,31.5,30.13,NNW,328,1.0,10.0,58,0.00,,---,0.00,295.00,VWS V14.01,2013-05-13 14:16:00,
2013-05-13 10:21:00,45.5,32.4,30.13,WSW,240,5.0,10.0,60,0.00,,---,0.00,285.00,VWS V14.01,2013-05-13 14:21:00,
2013-05-13 10:26:00,45.6,32.5,30.13,WSW,248,2.0,10.0,60,0.00,,---,0.00,355.00,VWS V14.01,2013-05-13 14:26:00,
2013-05-13 10:30:00,45.6,33.3,30.13,WSW,254,6.0,10.0,62,0.00,,---,0.00,464.00,VWS V14.01,2013-05-13 14:30:00,
2013-05-13 10:31:00,45.6,32.5,30.13,WSW,255,4.0,6.0,60,0.00,,---,0.00,464.00,VWS V14.01,2013-05-13 14:31:00,
2013-05-13 10:36:00,45.7,33.0,30.13,WNW,298,4.0,6.0,61,0.00,,---,0.00,197.00,VWS V14.01,2013-05-13 14:36:00,
2013-05-13 10:41:00,45.6,32.5,30.13,WNW,286,0.0,6.0,60,0.00,,---,0.00,142.00,VWS V14.01,2013-05-13 14:41:00,
2013-05-13 10:46:00,45.5,32.0,30.14,West,260,3.0,9.0,59,0.00,,---,0.00,172.00,VWS V14.01,2013-05-13 14:46:00,
2013-05-13 10:51:00,45.4,32.3,30.14,West,275,5.0,9.0,60,0.00,,---,0.00,163.00,VWS V14.01,2013-05-13 14:51:00,
2013-05-13 10:56:00,45.1,32.5,30.14,West,261,7.0,12.0,61,0.00,,---,0.00,202.00,VWS V14.01,2013-05-13 14:56:00,
2013-05-13 11:00:00,44.9,32.7,30.14,WNW,290,2.0,12.0,62,0.00,,---,0.00,221.00,VWS V14.01,2013-05-13 15:00:00,
2013-05-13 11:01:00,44.8,32.6,30.14,WNW,292,0.0,2.0,62,0.00,,---,0.00,216.00,VWS V14.01,2013-05-13 15:01:00,
2013-05-13 11:06:00,44.7,32.5,30.14,NW,312,2.0,10.0,62,0.00,,---,0.00,197.00,VWS V14.01,2013-05-13 15:06:00,
2013-05-13 11:11:00,44.6,32.8,30.14,WNW,296,1.0,10.0,63,0.00,,---,0.00,269.00,VWS V14.01,2013-05-13 15:11:00,
2013-05-13 11:16:00,44.8,33.0,30.14,WNW,298,3.0,10.0,63,0.00,,---,0.00,320.00,VWS V14.01,2013-05-13 15:16:00,
2013-05-13 11:21:00,44.9,33.5,30.14,West,272,3.0,10.0,64,0.00,,---,0.00,230.00,VWS V14.01,2013-05-13 15:21:00,
2013-05-13 11:26:00,44.9,33.1,30.14,West,259,4.0,10.0,63,0.00,,---,0.00,186.00,VWS V14.01,2013-05-13 15:26:00,
2013-05-13 11:30:00,44.9,33.5,30.14,West,269,2.0,10.0,64,0.00,,---,0.00,236.00,VWS V14.01,2013-05-13 15:30:00,
2013-05-13 11:32:00,44.8,33.4,30.14,WNW,283,2.0,6.0,64,0.00,,---,0.00,237.00,VWS V14.01,2013-05-13 15:32:00,
2013-05-13 11:37:00,44.9,33.9,30.15,West,271,3.0,6.0,65,0.00,,---,0.00,290.00,VWS V14.01,2013-05-13 15:37:00,
2013-05-13 11:42:00,45.0,34.0,30.15,West,279,5.0,7.0,65,0.00,,---,0.00,271.00,VWS V14.01,2013-05-13 15:42:00,
2013-05-13 11:47:00,45.1,33.7,30.15,West,275,4.0,7.0,64,0.00,,---,0.00,251.00,VWS V14.01,2013-05-13 15:47:00,
2013-05-13 11:52:00,45.1,33.7,30.14,NW,308,3.0,7.0,64,0.00,,---,0.00,410.00,VWS V14.01,2013-05-13 15:52:00,
2013-05-13 11:57:00,45.4,34.3,30.14,WNW,296,2.0,7.0,65,0.00,,---,0.00,589.00,VWS V14.01,2013-05-13 15:57:00,
2013-05-13 12:00:00,45.8,34.3,30.14,WSW,248,4.0,7.0,64,0.00,,---,0.00,589.00,VWS V14.01,2013-05-13 16:00:00,
2013-05-13 12:02:00,45.9,34.0,30.14,West,275,4.0,8.0,63,0.00,,---,0.00,466.00,VWS V14.01,2013-05-13 16:02:00,
2013-05-13 12:07:00,46.5,35.0,30.14,WSW,256,9.0,11.0,64,0.00,,---,0.00,1225.00,VWS V14.01,2013-05-13 16:07:00,
2013-05-13 12:12:00,47.0,33.8,30.14,West,264,1.0,11.0,60,0.00,,---,0.00,536.00,VWS V14.01,2013-05-13 16:12:00,
2013-05-13 12:17:00,47.6,35.6,30.14,WNW,284,1.0,11.0,63,0.00,,---,0.00,960.00,VWS V14.01,2013-05-13 16:17:00,
2013-05-13 12:22:00,48.1,35.3,30.13,West,265,3.0,11.0,61,0.00,,---,0.00,946.00,VWS V14.01,2013-05-13 16:22:00,
2013-05-13 12:27:00,48.7,35.0,30.13,WNW,288,3.0,11.0,59,0.00,,---,0.00,946.00,VWS V14.01,2013-05-13 16:27:00,
2013-05-13 12:30:00,48.9,33.9,30.13,WNW,300,0.0,11.0,56,0.00,,---,0.00,953.00,VWS V14.01,2013-05-13 16:30:00,
2013-05-13 12:32:00,49.0,33.5,30.13,WNW,300,0.0,2.0,55,0.00,,---,0.00,967.00,VWS V14.01,2013-05-13 16:32:00,
2013-05-13 12:37:00,49.3,33.8,30.13,West,268,6.0,12.0,55,0.00,,---,0.00,979.00,VWS V14.01,2013-05-13 16:37:00,
2013-05-13 12:42:00,49.8,34.8,30.13,NNW,336,2.0,12.0,56,0.00,,---,0.00,925.00,VWS V14.01,2013-05-13 16:42:00,
2013-05-13 12:47:00,50.3,35.7,30.13,WSW,243,8.0,12.0,57,0.00,,---,0.00,1072.00,VWS V14.01,2013-05-13 16:47:00,
2013-05-13 12:52:00,50.4,34.4,30.12,WNW,300,2.0,12.0,54,0.00,,---,0.00,489.00,VWS V14.01,2013-05-13 16:52:00,
2013-05-13 12:57:00,50.6,36.8,30.12,WSW,250,6.0,12.0,59,0.00,,---,0.00,1065.00,VWS V14.01,2013-05-13 16:57:00,
2013-05-13 13:00:00,50.6,35.9,30.12,South,180,6.0,12.0,57,0.00,,---,0.00,1097.00,VWS V14.01,2013-05-13 17:00:00,
2013-05-13 13:02:00,50.7,35.6,30.12,West,277,2.0,6.0,56,0.00,,---,0.00,1106.00,VWS V14.01,2013-05-13 17:02:00,
2013-05-13 13:07:00,50.8,35.2,30.12,WSW,244,14.0,14.0,55,0.00,,---,0.00,473.00,VWS V14.01,2013-05-13 17:07:00,
2013-05-13 13:12:00,50.6,34.6,30.12,WNW,282,6.0,14.0,54,0.00,,---,0.00,357.00,VWS V14.01,2013-05-13 17:12:00,
2013-05-13 13:17:00,51.0,35.0,30.12,West,265,0.0,14.0,54,0.00,,---,0.00,1250.00,VWS V14.01,2013-05-13 17:17:00,
2013-05-13 13:22:00,51.3,37.0,30.11,West,265,5.0,14.0,58,0.00,,---,0.00,1158.00,VWS V14.01,2013-05-13 17:22:00,
2013-05-13 13:27:00,51.4,35.3,30.11,NW,311,4.0,14.0,54,0.00,,---,0.00,294.00,VWS V14.01,2013-05-13 17:27:00,
2013-05-13 13:30:00,51.3,35.7,30.12,West,265,2.0,14.0,55,0.00,,---,0.00,241.00,VWS V14.01,2013-05-13 17:30:00,
2013-05-13 13:32:00,51.2,35.6,30.12,SSW,198,5.0,5.0,55,0.00,,---,0.00,237.00,VWS V14.01,2013-05-13 17:32:00,
2013-05-13 13:37:00,50.9,34.9,30.11,North,355,0.0,6.0,54,0.00,,---,0.00,290.00,VWS V14.01,2013-05-13 17:37:00,
2013-05-13 13:42:00,50.8,35.2,30.11,NW,318,1.0,6.0,55,0.00,,---,0.00,243.00,VWS V14.01,2013-05-13 17:42:00,
2013-05-13 13:47:00,50.6,34.6,30.11,West,262,5.0,10.0,54,0.00,,---,0.00,237.00,VWS V14.01,2013-05-13 17:47:00,
2013-05-13 13:52:00,50.4,34.4,30.11,West,259,9.0,12.0,54,0.00,,---,0.00,383.00,VWS V14.01,2013-05-13 17:52:00,
2013-05-13 13:57:00,50.5,35.0,30.11,NW,321,2.0,12.0,55,0.00,,---,0.00,1190.00,VWS V14.01,2013-05-13 17:57:00,
2013-05-13 14:00:00,50.9,34.4,30.10,NW,306,2.0,12.0,53,0.00,,---,0.00,1146.00,VWS V14.01,2013-05-13 18:00:00,
2013-05-13 14:02:00,51.3,36.2,30.11,SW,236,6.0,7.0,56,0.00,,---,0.00,1146.00,VWS V14.01,2013-05-13 18:02:00,
2013-05-13 14:07:00,51.8,34.3,30.10,WSW,255,1.0,11.0,51,0.00,,---,0.00,471.00,VWS V14.01,2013-05-13 18:07:00,
2013-05-13 14:12:00,51.6,35.5,30.11,WSW,255,6.0,11.0,54,0.00,,---,0.00,221.00,VWS V14.01,2013-05-13 18:12:00,
2013-05-13 14:17:00,51.3,34.8,30.11,WSW,247,6.0,14.0,53,0.00,,---,0.00,213.00,VWS V14.01,2013-05-13 18:17:00,
2013-05-13 14:22:00,50.9,34.4,30.11,SW,232,5.0,14.0,53,0.00,,---,0.00,199.00,VWS V14.01,2013-05-13 18:22:00,
2013-05-13 14:27:00,50.6,34.6,30.11,SSW,210,6.0,14.0,54,0.00,,---,0.00,244.00,VWS V14.01,2013-05-13 18:27:00,
2013-05-13 14:30:00,50.4,34.4,30.11,West,274,5.0,15.0,54,0.00,,---,0.00,272.00,VWS V14.01,2013-05-13 18:30:00,
2013-05-13 14:32:00,50.3,34.3,30.11,West,267,4.0,8.0,54,0.00,,---,0.00,315.00,VWS V14.01,2013-05-13 18:32:00,
2013-05-13 14:37:00,50.3,34.8,30.12,West,279,5.0,10.0,55,0.00,,---,0.00,394.00,VWS V14.01,2013-05-13 18:37:00,
2013-05-13 14:42:00,50.5,35.4,30.11,WNW,300,3.0,10.0,56,0.00,,---,0.00,468.00,VWS V14.01,2013-05-13 18:42:00,
2013-05-13 14:47:00,50.8,35.7,30.11,WSW,244,8.0,10.0,56,0.00,,---,0.00,1164.00,VWS V14.01,2013-05-13 18:47:00,
2013-05-13 14:52:00,51.4,35.3,30.11,WNW,299,3.0,10.0,54,0.00,,---,0.00,343.00,VWS V14.01,2013-05-13 18:52:00,
2013-05-13 14:57:00,52.0,35.4,30.11,NW,321,5.0,10.0,53,0.00,,---,0.00,1127.00,VWS V14.01,2013-05-13 18:57:00,
2013-05-13 15:00:00,52.4,35.8,30.11,West,277,4.0,10.0,53,0.00,,---,0.00,640.00,VWS V14.01,2013-05-13 19:00:00,
2013-05-13 15:02:00,52.8,35.2,30.10,NW,324,4.0,6.0,51,0.00,,---,0.00,640.00,VWS V14.01,2013-05-13 19:02:00,
2013-05-13 15:07:00,52.9,34.8,30.10,WNW,296,4.0,11.0,50,0.00,,---,0.00,515.00,VWS V14.01,2013-05-13 19:07:00,
2013-05-13 15:12:00,52.6,34.5,30.10,West,271,4.0,11.0,50,0.00,,---,0.00,334.00,VWS V14.01,2013-05-13 19:12:00,
2013-05-13 15:17:00,52.4,35.3,30.10,NW,326,3.0,11.0,52,0.00,,---,0.00,956.00,VWS V14.01,2013-05-13 19:17:00,
2013-05-13 15:22:00,53.1,35.5,30.10,West,267,5.0,11.0,51,0.00,,---,0.00,933.00,VWS V14.01,2013-05-13 19:22:00,
2013-05-13 15:27:00,53.5,35.3,30.10,NNW,338,5.0,11.0,50,0.00,,---,0.00,1093.00,VWS V14.01,2013-05-13 19:27:00,
2013-05-13 15:30:00,53.9,37.2,30.10,NNW,327,9.0,11.0,53,0.00,,---,0.00,1034.00,VWS V14.01,2013-05-13 19:30:00,
2013-05-13 15:33:00,54.2,35.5,30.10,NW,315,3.0,12.0,49,0.00,,---,0.00,986.00,VWS V14.01,2013-05-13 19:33:00,
2013-05-13 15:37:00,54.6,35.8,30.10,WNW,298,2.0,13.0,49,0.00,,---,0.00,979.00,VWS V14.01,2013-05-13 19:37:00,
2013-05-13 15:42:00,54.7,36.9,30.09,NW,309,1.0,13.0,51,0.00,,---,0.00,364.00,VWS V14.01,2013-05-13 19:42:00,
2013-05-13 15:48:00,54.6,35.3,30.10,NW,319,1.0,13.0,48,0.00,,---,0.00,367.00,VWS V14.01,2013-05-13 19:48:00,
2013-05-13 15:53:00,54.6,35.3,30.10,NW,322,10.0,13.0,48,0.00,,---,0.00,1011.00,VWS V14.01,2013-05-13 19:53:00,
2013-05-13 15:58:00,54.8,35.5,30.09,West,277,4.0,13.0,48,0.00,,---,0.00,1014.00,VWS V14.01,2013-05-13 19:58:00,
2013-05-13 16:00:00,55.1,36.8,30.09,NW,308,5.0,13.0,50,0.00,,---,0.00,1014.00,VWS V14.01,2013-05-13 20:00:00,
2013-05-13 16:03:00,55.2,36.4,30.09,West,271,6.0,6.0,49,0.00,,---,0.00,239.00,VWS V14.01,2013-05-13 20:03:00,
2013-05-13 16:08:00,54.7,34.9,30.09,WSW,244,4.0,13.0,47,0.00,,---,0.00,239.00,VWS V14.01,2013-05-13 20:08:00,
2013-05-13 16:13:00,53.8,34.1,30.09,WSW,256,4.0,13.0,47,0.00,,---,0.00,250.00,VWS V14.01,2013-05-13 20:13:00,
2013-05-13 16:18:00,53.3,36.1,30.09,NNW,330,9.0,13.0,52,0.00,,---,0.00,445.00,VWS V14.01,2013-05-13 20:18:00,
2013-05-13 16:23:00,53.2,35.6,30.09,NW,308,6.0,13.0,51,0.00,,---,0.00,851.00,VWS V14.01,2013-05-13 20:23:00,
2013-05-13 16:28:00,53.7,36.5,30.08,NW,313,2.0,13.0,52,0.00,,---,0.00,816.00,VWS V14.01,2013-05-13 20:28:00,
2013-05-13 16:30:00,54.1,36.4,30.08,WNW,302,5.0,13.0,51,0.00,,---,0.00,807.00,VWS V14.01,2013-05-13 20:30:00,
2013-05-13 16:33:00,54.4,36.7,30.08,WNW,290,0.0,6.0,51,0.00,,---,0.00,817.00,VWS V14.01,2013-05-13 20:33:00,
2013-05-13 16:38:00,55.0,35.7,30.08,NNE,17,0.0,7.0,48,0.00,,---,0.00,214.00,VWS V14.01,2013-05-13 20:38:00,
2013-05-13 16:43:00,55.1,37.3,30.08,WNW,302,2.0,16.0,51,0.00,,---,0.00,406.00,VWS V14.01,2013-05-13 20:43:00,
2013-05-13 16:48:00,55.0,35.7,30.08,NW,325,3.0,16.0,48,0.00,,---,0.00,253.00,VWS V14.01,2013-05-13 20:48:00,
2013-05-13 16:53:00,55.1,36.8,30.08,NW,317,5.0,16.0,50,0.00,,---,0.00,777.00,VWS V14.01,2013-05-13 20:53:00,
2013-05-13 16:58:00,55.4,35.5,30.08,NW,308,5.0,16.0,47,0.00,,---,0.00,782.00,VWS V14.01,2013-05-13 20:58:00,
2013-05-13 17:00:00,55.5,35.6,30.07,West,261,6.0,16.0,47,0.00,,---,0.00,227.00,VWS V14.01,2013-05-13 21:00:00,
2013-05-13 17:03:00,55.3,34.9,30.08,West,267,1.0,6.0,46,0.00,,---,0.00,255.00,VWS V14.01,2013-05-13 21:03:00,
2013-05-13 17:08:00,55.2,36.4,30.08,NW,309,4.0,11.0,49,0.00,,---,0.00,744.00,VWS V14.01,2013-05-13 21:08:00,
2013-05-13 17:13:00,55.5,35.6,30.07,NW,324,9.0,12.0,47,0.00,,---,0.00,186.00,VWS V14.01,2013-05-13 21:13:00,
2013-05-13 17:18:00,55.6,35.7,30.07,WNW,300,3.0,12.0,47,0.00,,---,0.00,679.00,VWS V14.01,2013-05-13 21:18:00,
2013-05-13 17:23:00,55.9,36.0,30.07,WNW,294,6.0,12.0,47,0.00,,---,0.00,608.00,VWS V14.01,2013-05-13 21:23:00,
2013-05-13 17:28:00,55.7,35.8,30.07,NNW,333,4.0,12.0,47,0.00,,---,0.00,439.00,VWS V14.01,2013-05-13 21:28:00,
2013-05-13 17:30:00,55.6,35.7,30.07,WNW,295,0.0,12.0,47,0.00,,---,0.00,264.00,VWS V14.01,2013-05-13 21:30:00,
2013-05-13 17:33:00,55.6,35.7,30.07,WNW,299,7.0,9.0,47,0.00,,---,0.00,624.00,VWS V14.01,2013-05-13 21:33:00,
2013-05-13 17:38:00,55.5,34.5,30.07,WNW,292,5.0,12.0,45,0.00,,---,0.00,167.00,VWS V14.01,2013-05-13 21:38:00,
2013-05-13 17:43:00,55.1,35.8,30.07,West,279,7.0,12.0,48,0.00,,---,0.00,557.00,VWS V14.01,2013-05-13 21:43:00,
2013-05-13 17:48:00,55.2,35.9,30.07,NW,311,5.0,12.0,48,0.00,,---,0.00,543.00,VWS V14.01,2013-05-13 21:48:00,
2013-05-13 17:53:00,55.4,34.4,30.07,NW,304,4.0,13.0,45,0.00,,---,0.00,529.00,VWS V14.01,2013-05-13 21:53:00,
2013-05-13 17:58:00,55.3,34.3,30.07,West,267,4.0,13.0,45,0.00,,---,0.00,503.00,VWS V14.01,2013-05-13 21:58:00,
2013-05-13 18:00:00,55.2,34.8,30.07,WNW,288,4.0,13.0,46,0.00,,---,0.00,490.00,VWS V14.01,2013-05-13 22:00:00,
2013-05-13 18:03:00,55.3,34.3,30.07,WNW,300,2.0,12.0,45,0.00,,---,0.00,476.00,VWS V14.01,2013-05-13 22:03:00,
2013-05-13 18:08:00,55.2,33.7,30.07,WSW,255,4.0,12.0,44,0.00,,---,0.00,466.00,VWS V14.01,2013-05-13 22:08:00,
2013-05-13 18:14:00,55.0,32.9,30.07,NW,307,1.0,13.0,43,0.00,,---,0.00,461.00,VWS V14.01,2013-05-13 22:14:00,
2013-05-13 18:19:00,55.1,33.6,30.07,NW,317,7.0,13.0,44,0.00,,---,0.00,95.00,VWS V14.01,2013-05-13 22:19:00,
2013-05-13 18:24:00,54.9,33.4,30.07,West,276,6.0,13.0,44,0.00,,---,0.00,193.00,VWS V14.01,2013-05-13 22:24:00,
2013-05-13 18:29:00,54.8,33.9,30.07,NW,319,5.0,13.0,45,0.00,,---,0.00,434.00,VWS V14.01,2013-05-13 22:29:00,
2013-05-13 18:30:00,54.9,34.5,30.07,WNW,282,6.0,13.0,46,0.00,,---,0.00,424.00,VWS V14.01,2013-05-13 22:30:00,
2013-05-13 18:34:00,55.1,34.2,30.07,North,360,5.0,10.0,45,0.00,,---,0.00,392.00,VWS V14.01,2013-05-13 22:34:00,
2013-05-13 18:39:00,55.0,32.9,30.07,NNW,338,4.0,10.0,43,0.00,,---,0.00,362.00,VWS V14.01,2013-05-13 22:39:00,
2013-05-13 18:44:00,55.0,34.1,30.07,NW,321,2.0,10.0,45,0.00,,---,0.00,353.00,VWS V14.01,2013-05-13 22:44:00,
2013-05-13 18:49:00,55.1,33.0,30.07,WNW,291,0.0,10.0,43,0.00,,---,0.00,330.00,VWS V14.01,2013-05-13 22:49:00,
2013-05-13 18:54:00,55.2,33.1,30.07,NW,319,6.0,10.0,43,0.00,,---,0.00,309.00,VWS V14.01,2013-05-13 22:54:00,
2013-05-13 18:59:00,55.1,32.4,30.07,NW,311,5.0,10.0,42,0.00,,---,0.00,285.00,VWS V14.01,2013-05-13 22:59:00,
2013-05-13 19:00:00,55.1,32.4,30.07,WNW,300,2.0,10.0,42,0.00,,---,0.00,281.00,VWS V14.01,2013-05-13 23:00:00,
2013-05-13 19:04:00,55.1,33.0,30.07,NNW,327,4.0,6.0,43,0.00,,---,0.00,267.00,VWS V14.01,2013-05-13 23:04:00,
2013-05-13 19:09:00,55.1,31.8,30.07,North,360,2.0,9.0,41,0.00,,---,0.00,250.00,VWS V14.01,2013-05-13 23:09:00,
2013-05-13 19:14:00,55.0,32.3,30.07,NW,313,7.0,9.0,42,0.00,,---,0.00,244.00,VWS V14.01,2013-05-13 23:14:00,
2013-05-13 19:19:00,54.8,31.6,30.07,NW,309,5.0,9.0,41,0.00,,---,0.00,221.00,VWS V14.01,2013-05-13 23:19:00,
2013-05-13 19:24:00,54.7,32.1,30.07,NW,317,1.0,9.0,42,0.00,,---,0.00,123.00,VWS V14.01,2013-05-13 23:24:00,
2013-05-13 19:29:00,54.5,32.5,30.07,NW,319,2.0,9.0,43,0.00,,---,0.00,181.00,VWS V14.01,2013-05-13 23:29:00,
2013-05-13 19:30:00,54.5,32.5,30.07,NW,319,0.0,9.0,43,0.00,,---,0.00,176.00,VWS V14.01,2013-05-13 23:30:00,
2013-05-13 19:34:00,54.5,33.0,30.07,NW,317,1.0,3.0,44,0.00,,---,0.00,156.00,VWS V14.01,2013-05-13 23:34:00,
2013-05-13 19:39:00,54.5,33.6,30.07,NW,317,3.0,3.0,45,0.00,,---,0.00,77.00,VWS V14.01,2013-05-13 23:39:00,
2013-05-13 19:44:00,54.1,32.1,30.07,West,274,3.0,10.0,43,0.00,,---,0.00,105.00,VWS V14.01,2013-05-13 23:44:00,
2013-05-13 19:49:00,53.7,32.3,30.07,WNW,300,0.0,10.0,44,0.00,,---,0.00,72.00,VWS V14.01,2013-05-13 23:49:00,
2013-05-13 19:54:00,53.6,33.3,30.07,NW,304,2.0,10.0,46,0.00,,---,0.00,60.00,VWS V14.01,2013-05-13 23:54:00,
2013-05-13 19:59:00,53.3,33.1,30.08,NW,304,1.0,10.0,46,0.00,,---,0.00,65.00,VWS V14.01,2013-05-13 23:59:00,
2013-05-13 20:00:00,53.3,33.1,30.08,NW,304,0.0,10.0,46,0.00,,---,0.00,65.00,VWS V14.01,2013-05-14 00:00:00,
2013-05-13 20:04:00,53.1,32.9,30.07,NW,304,0.0,2.0,46,0.00,,---,0.00,56.00,VWS V14.01,2013-05-14 00:04:00,
2013-05-13 20:09:00,53.0,33.3,30.07,NW,305,0.0,3.0,47,0.00,,---,0.00,47.00,VWS V14.01,2013-05-14 00:09:00,
2013-05-13 20:14:00,52.7,33.0,30.08,NW,305,2.0,3.0,47,0.00,,---,0.00,42.00,VWS V14.01,2013-05-14 00:14:00,
2013-05-13 20:20:00,52.5,33.4,30.08,NW,305,0.0,3.0,48,0.00,,---,0.00,33.00,VWS V14.01,2013-05-14 00:20:00,
2013-05-13 20:25:00,52.3,32.2,30.08,NW,305,0.0,3.0,46,0.00,,---,0.00,26.00,VWS V14.01,2013-05-14 00:25:00,
2013-05-13 20:30:00,52.1,32.5,30.08,NW,305,0.0,3.0,47,0.00,,---,0.00,18.00,VWS V14.01,2013-05-14 00:30:00,
2013-05-13 20:35:00,52.0,32.4,30.08,NW,305,0.0,0.0,47,0.00,,---,0.00,11.00,VWS V14.01,2013-05-14 00:35:00,
2013-05-13 20:40:00,51.7,33.2,30.08,NW,305,0.0,0.0,49,0.00,,---,0.00,0.00,VWS V14.01,2013-05-14 00:40:00,
2013-05-13 20:45:00,51.3,33.8,30.09,NW,305,0.0,0.0,51,0.00,,---,0.00,0.00,VWS V14.01,2013-05-14 00:45:00,
2013-05-13 20:50:00,50.9,33.9,30.09,NW,305,0.0,0.0,52,0.00,,---,0.00,0.00,VWS V14.01,2013-05-14 00:50:00,
2013-05-13 20:55:00,50.4,33.5,30.09,NW,305,0.0,0.0,52,0.00,,---,0.00,0.00,VWS V14.01,2013-05-14 00:55:00,
2013-05-13 21:00:00,49.9,33.9,30.09,NW,305,0.0,0.0,54,0.00,,---,0.00,0.00,VWS V14.01,2013-05-14 01:00:00,
2013-05-13 21:05:00,49.2,33.7,30.09,NW,305,0.0,1.0,55,0.00,,---,0.00,0.00,VWS V14.01,2013-05-14 01:05:00,
2013-05-13 21:10:00,48.5,33.5,30.09,NW,305,0.0,1.0,56,0.00,,---,0.00,0.00,VWS V14.01,2013-05-14 01:10:00,
2013-05-13 21:15:00,47.9,33.8,30.10,NW,305,0.0,1.0,58,0.00,,---,0.00,0.00,VWS V14.01,2013-05-14 01:15:00,
2013-05-13 21:20:00,47.3,34.1,30.10,NW,305,0.0,1.0,60,0.00,,---,0.00,0.00,VWS V14.01,2013-05-14 01:20:00,
2013-05-13 21:25:00,46.7,33.6,30.10,NW,305,0.0,1.0,60,0.00,,---,0.00,0.00,VWS V14.01,2013-05-14 01:25:00,
2013-05-13 21:30:00,46.2,33.1,30.10,NW,305,0.0,1.0,60,0.00,,---,0.00,0.00,VWS V14.01,2013-05-14 01:30:00,
2013-05-13 21:35:00,45.8,33.1,30.10,NW,305,0.0,1.0,61,0.00,,---,0.00,0.00,VWS V14.01,2013-05-14 01:35:00,
2013-05-13 21:40:00,45.5,33.7,30.10,NW,305,0.0,1.0,63,0.00,,---,0.00,0.00,VWS V14.01,2013-05-14 01:40:00,
2013-05-13 21:45:00,45.2,33.8,30.10,NW,305,0.0,1.0,64,0.00,,---,0.00,0.00,VWS V14.01,2013-05-14 01:45:00,
2013-05-13 21:50:00,44.9,33.9,30.10,NW,305,0.0,1.0,65,0.00,,---,0.00,0.00,VWS V14.01,2013-05-14 01:50:00,
2013-05-13 21:55:00,44.7,33.7,30.11,NW,305,0.0,1.0,65,0.00,,---,0.00,0.00,VWS V14.01,2013-05-14 01:55:00,
2013-05-13 22:00:00,44.3,34.0,30.11,NW,305,0.0,1.0,67,0.00,,---,0.00,0.00,VWS V14.01,2013-05-14 02:00:00,
2013-05-13 22:05:00,44.0,34.5,30.11,NW,305,0.0,0.0,69,0.00,,---,0.00,0.00,VWS V14.01,2013-05-14 02:05:00,
2013-05-13 22:10:00,43.6,34.1,30.11,NW,305,0.0,0.0,69,0.00,,---,0.00,0.00,VWS V14.01,2013-05-14 02:10:00,
2013-05-13 22:15:00,43.3,34.2,30.11,NW,305,0.0,0.0,70,0.00,,---,0.00,0.00,VWS V14.01,2013-05-14 02:15:00,
2013-05-13 22:20:00,43.0,34.2,30.11,NW,305,0.0,0.0,71,0.00,,---,0.00,0.00,VWS V14.01,2013-05-14 02:20:00,
2013-05-13 22:25:00,42.7,34.3,30.11,NW,305,0.0,0.0,72,0.00,,---,0.00,0.00,VWS V14.01,2013-05-14 02:25:00,
2013-05-13 22:30:00,42.4,34.4,30.11,NW,305,0.0,0.0,73,0.00,,---,0.00,0.00,VWS V14.01,2013-05-14 02:30:00,
2013-05-13 22:31:00,42.4,34.4,30.12,NW,305,0.0,0.0,73,0.00,,---,0.00,0.00,VWS V14.01,2013-05-14 02:31:00,
2013-05-13 22:36:00,42.2,34.2,30.11,NW,305,0.0,0.0,73,0.00,,---,0.00,0.00,VWS V14.01,2013-05-14 02:36:00,
2013-05-13 22:41:00,41.7,34.0,30.11,NW,305,0.0,1.0,74,0.00,,---,0.00,0.00,VWS V14.01,2013-05-14 02:41:00,
2013-05-13 22:46:00,41.5,33.8,30.11,NW,305,0.0,1.0,74,0.00,,---,0.00,0.00,VWS V14.01,2013-05-14 02:46:00,
2013-05-13 22:51:00,41.2,33.9,30.11,NW,305,0.0,1.0,75,0.00,,---,0.00,0.00,VWS V14.01,2013-05-14 02:51:00,
2013-05-13 22:56:00,41.0,34.0,30.11,NW,305,0.0,1.0,76,0.00,,---,0.00,0.00,VWS V14.01,2013-05-14 02:56:00,
2013-05-13 23:00:00,40.7,34.1,30.11,NW,305,0.0,1.0,77,0.00,,---,0.00,0.00,VWS V14.01,2013-05-14 03:00:00,
2013-05-13 23:01:00,40.6,34.0,30.11,NW,305,0.0,0.0,77,0.00,,---,0.00,0.00,VWS V14.01,2013-05-14 03:01:00,
2013-05-13 23:06:00,40.4,33.8,30.11,NW,305,0.0,0.0,77,0.00,,---,0.00,0.00,VWS V14.01,2013-05-14 03:06:00,
2013-05-13 23:11:00,40.2,33.9,30.11,NW,305,0.0,0.0,78,0.00,,---,0.00,0.00,VWS V14.01,2013-05-14 03:11:00,
2013-05-13 23:16:00,39.9,33.6,30.11,NW,305,0.0,0.0,78,0.00,,---,0.00,0.00,VWS V14.01,2013-05-14 03:16:00,
2013-05-13 23:21:00,39.7,33.4,30.11,NW,305,0.0,0.0,78,0.00,,---,0.00,0.00,VWS V14.01,2013-05-14 03:21:00,
2013-05-13 23:26:00,39.5,33.5,30.11,NW,305,0.0,0.0,79,0.00,,---,0.00,0.00,VWS V14.01,2013-05-14 03:26:00,
2013-05-13 23:30:00,39.3,33.3,30.11,NW,305,0.0,0.0,79,0.00,,---,0.00,0.00,VWS V14.01,2013-05-14 03:30:00,
2013-05-13 23:31:00,39.3,33.7,30.11,NW,305,0.0,0.0,80,0.00,,---,0.00,0.00,VWS V14.01,2013-05-14 03:31:00,
2013-05-13 23:36:00,39.1,33.5,30.11,NW,305,0.0,0.0,80,0.00,,---,0.00,0.00,VWS V14.01,2013-05-14 03:36:00,
2013-05-13 23:41:00,38.9,33.6,30.11,NW,305,0.0,0.0,81,0.00,,---,0.00,0.00,VWS V14.01,2013-05-14 03:41:00,
2013-05-13 23:46:00,38.7,33.7,30.11,NW,305,0.0,0.0,82,0.00,,---,0.00,0.00,VWS V14.01,2013-05-14 03:46:00,
2013-05-13 23:51:00,38.5,33.5,30.11,NW,305,0.0,0.0,82,0.00,,---,0.00,0.00,VWS V14.01,2013-05-14 03:51:00,
2013-05-13 23:56:00,38.3,33.3,30.11,NW,305,0.0,0.0,82,0.00,,---,0.00,0.00,VWS V14.01,2013-05-14 03:56:00,